Regional Weather Roundup
Issued by NWS Green Bay, WI

Home | Current Version | Previous Version | Graphics & Text | Print | Product List | Glossary Off
Versions: 1 2 3 4 5 6 7 8 9 10 11 12 13 14 15 16 17 18 19 20 21 22 23 24 25 26 27 28 29 30 31 32 33 34 35 36 37 38 39 40 41 42 43 44 45 46 47 48 49 50

000
ASUS43 KGRB 251410
RWRGRB

NORTH-CENTRAL AND NORTHEAST WISCONSIN REGIONAL WEATHER ROUNDUP
NATIONAL WEATHER SERVICE GREEN BAY WI
900 AM CDT SAT OCT 25 2014

WIZ005-009-010>012-018-019-251500-
NORTH CENTRAL WISCONSIN

CITY           SKY/WX    TMP DP  RH WIND       PRES   REMARKS
IRONWOOD       SUNNY     48  36  61 W12G21    29.83R
MANITOWISH WTR SUNNY     47  36  65 NW13G18   29.84R
ARBOR VITAE    SUNNY     49  37  63 W10G17    29.85R
EAGLE RIVER    SUNNY     49  33  54 W15G22    29.82R
LAND O LAKES   SUNNY     50  33  53 NW14G24   29.82R
RHINELANDER    SUNNY     49  35  58 W17G25    29.85R
PHILLIPS       SUNNY     48  35  61 W9        29.88R
ANTIGO         SUNNY     50  37  62 NW16G22   29.85S
TOMAHAWK       SUNNY     49  35  59 W13G23    29.87R
MERRILL        SUNNY     51  36  55 NW13G22   29.87R
$$

WIZ013-073-251500-
NORTHEAST WISCONSIN

CITY           SKY/WX    TMP DP  RH WIND       PRES   REMARKS
IRON MOUNTAIN  SUNNY     53  35  50 NW16G29   29.75R
MARINETTE      SUNNY     54  45  71 W6        29.78S
OCONTO         SUNNY     54  46  75 W14G20    29.80F
$$

WIZ017-030-035>037-045-251500-
CENTRAL WISCONSIN

CITY           SKY/WX    TMP DP  RH WIND       PRES   REMARKS
MEDFORD        SUNNY     48  38  67 W12       29.90R
WAUSAU         SUNNY     50  40  68 NW14      29.87R
MOSINEE        NOT AVBL
MARSHFIELD     SUNNY     51  39  63 NW15      29.91R
WISC RAPIDS    SUNNY     52  41  66 W12       29.93R
STEVENS POINT  SUNNY     50  39  66 W9        29.90R
WAUPACA        SUNNY     55  44  64 W10       29.89R
SHAWANO        SUNNY     55  44  67 W8        29.85R
CLINTONVILLE   SUNNY     52  45  76 W8        29.85S
$$

WIZ038-039-048-051-251500-
FOX VALLEY

CITY           SKY/WX    TMP DP  RH WIND       PRES   REMARKS
NWS GREEN BAY  SUNNY     55  47  74 W10       29.84S
APPLETON       SUNNY     52  48  87 W8        29.88R
OSHKOSH        SUNNY     54  48  80 W8        29.88R
FOND DU LAC    SUNNY     55  47  74 W10       29.90R
$$

WIZ022-050-052-251500-
EAST CENTRAL WISCONSIN

CITY           SKY/WX    TMP DP  RH WIND       PRES   REMARKS
STURGEON BAY   SUNNY     54  46  76 W15       29.80S
MANITOWOC      SUNNY     57  49  74 W12       29.85R
SHEBOYGAN      SUNNY     57  48  72 W10       29.87R
$$

LMZ563-521-522-541>543-251500-
LAKESHORE

STATION/POSITION TIME  TEMP    WIND        PRES    VSBY  WAVE
                       AIR SEA DIR/SP/G                  HT/PER
                 (UTC) (F)     (DEG/KT/KT) (MB)    (MI)  (FT/S)
SHEBOYGAN LKSHOR 1400   57 51  280/ 10/ 12 1011.7R
KEWAUNEE LKSHORE 1400   56     280/  9/ 12 1008.8F
ALGOMA MARINA    1300          270/  8/ 12   N/A
NORTHPORT PIER   1400   56     260/  5/ 12 1007.8S
N MID LAKE BUOY  1400   53 51  260/ 16/ 17 1006.9R         3/ 5
SISTER BAY LKSHO 1300          270/ 13/ 14   N/A
CHAMBERS ISLAND  1400   55     220/  8/ 13 1008.1S
MENOMINEE LKSHOR 1400   53     240/ 11/ 13 1009.1S
$$



USA.gov is the U.S. government's official web portal to all federal, state and local government web resources and services.